Weather History for KFYJ - February, 2013

Change the Weather History Date:

Sunday, February 24, 2013

  Actual Average (KRIC) Record (KRIC)
Temperature  
Mean Temperature 46 °F 43 °F  
Max Temperature 55 °F 54 °F 82 °F (1985)
Min Temperature 36 °F 32 °F 11 °F (1914)
Degree Days  
Heating Degree Days 20 22  
Month to date heating degree days 588  
Since 1 July heating degree days 2849  
Cooling Degree Days 0 0  
Month to date cooling degree days 0  
Year to date cooling degree days 0  
Moisture  
Dew Point 40 °F    
Average Humidity 79    
Maximum Humidity 100    
Minimum Humidity 51    
Precipitation  
Precipitation 0.00 in 0.10 in 2.64 in (1979)
Month to date precipitation 2.35  
Year to date precipitation 5.39  
Snow  
Snow 0.00 in 0.10 in 5.40 in (1952)
Month to date snowfall 3.1  
Since 1 July snowfall 9.3  
Snow Depth -    
Sea Level Pressure  
Sea Level Pressure 29.91 in    
Wind  
Wind Speed 5 mph (NW)    
Max Wind Speed 15 mph    
Max Gust Speed 23 mph    
Visibility 8 miles    
Events      
T = Trace of Precipitation, MM = Missing Value Source: NWS Daily Summary

Daily Weather History Graph

Daily Weather History Graph

Search for Another Location

Airport or City:

Trip Planner

Search our weather history database for the weather conditions in past years. The results will help you decide how hot, cold, wet, or windy it might be!

Date:

Astronomy

Feb. 24, 2013 Rise Set
Actual Time 6:44 AM EST 5:56 PM EST
Civil Twilight 6:18 AM EST 6:22 PM EST
Nautical Twilight 5:48 AM EST 6:52 PM EST
Astronomical Twilight 5:17 AM EST 7:23 PM EST
Moon 5:05 PM EST (2/24) 5:40 AM EST (2/24)
Length of Visible Light 12h 04m
Length of Day
11h 11m
Waxing Gibbous, 99% of the Moon is Illuminated
Feb 24
Waxing Gibbous
Feb 25
Full
Mar 4
Last Quarter
Mar 11
New
Mar 19
First Quarter

Hourly Weather History & Observations

Time (EST) Temp. Windchill Dew Point Humidity Pressure Visibility Wind Dir Wind Speed Gust Speed Precip Events Conditions
12:15 AM 42.8 °F - 42.8 °F 100% 29.82 in 2.0 mi Calm Calm - N/A   Overcast
12:35 AM 42.8 °F 41.1 °F 42.8 °F 100% 29.82 in 1.8 mi WNW 3.5 mph - N/A   Overcast
12:55 AM 42.8 °F 41.1 °F 42.8 °F 100% 29.82 in 1.5 mi WNW 3.5 mph - N/A   Overcast
1:15 AM 43.0 °F 40.3 °F 43.0 °F 100% 29.82 in 1.5 mi WNW 4.6 mph - N/A   Overcast
1:35 AM 43.0 °F 40.3 °F 43.0 °F 100% 29.82 in 1.8 mi West 4.6 mph - N/A   Overcast
1:55 AM 43.2 °F 41.5 °F 43.2 °F 100% 29.84 in 1.8 mi West 3.5 mph - N/A   Overcast
2:15 AM 43.7 °F 42.1 °F 43.7 °F 100% 29.82 in 2.5 mi NW 3.5 mph - N/A   Overcast
2:35 AM 43.5 °F 41.9 °F 43.5 °F 100% 29.82 in 1.8 mi WNW 3.5 mph - N/A   Overcast
2:55 AM 43.7 °F 42.1 °F 43.7 °F 100% 29.80 in 1.8 mi NNW 3.5 mph - N/A   Overcast
3:15 AM 43.7 °F 41.1 °F 43.7 °F 100% 29.81 in 2.0 mi WNW 4.6 mph - N/A   Overcast
3:35 AM 43.7 °F 40.3 °F 43.7 °F 100% 29.81 in 4.0 mi NW 5.8 mph - N/A   Overcast
3:55 AM 43.7 °F - 43.7 °F 100% 29.80 in 5.0 mi Calm Calm - N/A   Overcast
4:15 AM 43.7 °F 41.1 °F 43.7 °F 100% 29.82 in 5.0 mi NW 4.6 mph - N/A   Overcast
4:35 AM 43.7 °F 42.1 °F 43.7 °F 100% 29.81 in 5.0 mi WNW 3.5 mph - N/A   Overcast
4:55 AM 43.7 °F 41.1 °F 43.7 °F 100% 29.83 in 7.0 mi WNW 4.6 mph - N/A   Overcast
5:15 AM 43.7 °F 41.1 °F 43.7 °F 100% 29.83 in 7.0 mi NNW 4.6 mph - N/A   Overcast
5:35 AM 43.7 °F - 43.7 °F 100% 29.82 in 7.0 mi Calm Calm - N/A   Overcast
5:55 AM 43.7 °F 42.1 °F 43.7 °F 100% 29.83 in 7.0 mi WNW 3.5 mph - N/A   Overcast
6:15 AM 43.7 °F 40.3 °F 43.7 °F 100% 29.85 in 5.0 mi WNW 5.8 mph - N/A   Overcast
6:35 AM 43.5 °F 40.9 °F 43.5 °F 100% 29.86 in 3.0 mi NW 4.6 mph - N/A   Overcast
6:55 AM 43.2 °F 39.0 °F 43.2 °F 100% 29.87 in 3.0 mi NW 6.9 mph - N/A   Overcast
7:15 AM 43.2 °F 40.5 °F 43.2 °F 100% 29.88 in 7.0 mi NW 4.6 mph - N/A   Overcast
7:35 AM 43.2 °F 40.5 °F 43.2 °F 100% 29.89 in 7.0 mi NW 4.6 mph - N/A   Overcast
7:55 AM 43.2 °F 40.5 °F 43.2 °F 100% 29.89 in 5.0 mi NNW 4.6 mph - N/A   Overcast
8:15 AM 43.7 °F 42.1 °F 43.7 °F 100% 29.87 in 7.0 mi North 3.5 mph - N/A   Overcast
8:35 AM 43.7 °F - 43.7 °F 100% 29.89 in 5.0 mi Calm Calm - N/A   Overcast
8:55 AM 44.6 °F 42.2 °F 44.6 °F 100% 29.89 in 10.0 mi NW 4.6 mph - N/A   Overcast
9:15 AM 44.8 °F 41.6 °F 44.8 °F 100% 29.91 in 10.0 mi NW 5.8 mph - N/A   Overcast
9:35 AM 45.5 °F 42.5 °F 45.5 °F 100% 29.91 in 10.0 mi WNW 5.8 mph - N/A   Overcast
9:55 AM 46.2 °F 45.0 °F 46.2 °F 100% 29.91 in 10.0 mi NW 3.5 mph - N/A   Overcast
10:15 AM 47.3 °F - 46.4 °F 97% 29.92 in 10.0 mi NW 4.6 mph - N/A   Mostly Cloudy
10:35 AM 48.4 °F - 45.1 °F 89% 29.92 in 10.0 mi WNW 5.8 mph - N/A   Scattered Clouds
10:55 AM 49.3 °F - 45.3 °F 86% 29.91 in 10.0 mi NNW 4.6 mph - N/A   Scattered Clouds
11:15 AM 50.2 °F - 43.5 °F 78% 29.91 in 10.0 mi NNW 4.6 mph - N/A   Scattered Clouds
11:35 AM 52.3 °F - 43.3 °F 71% 29.92 in 10.0 mi NW 8.1 mph - N/A   Mostly Cloudy
11:55 AM 52.2 °F - 42.4 °F 69% 29.90 in 10.0 mi WNW 6.9 mph - N/A   Scattered Clouds
12:15 PM 52.9 °F - 41.9 °F 66% 29.89 in 10.0 mi NNW 5.8 mph - N/A   Scattered Clouds
12:35 PM 53.6 °F - 42.1 °F 65% 29.89 in 10.0 mi WNW 8.1 mph - N/A   Scattered Clouds
12:55 PM 54.0 °F - 41.9 °F 64% 29.89 in 10.0 mi West 8.1 mph - N/A   Mostly Cloudy
1:15 PM 52.2 °F - 41.7 °F 68% 29.89 in 10.0 mi West 9.2 mph - N/A   Overcast
1:35 PM 53.6 °F - 41.7 °F 64% 29.88 in 10.0 mi West 8.1 mph - N/A   Mostly Cloudy
1:55 PM 55.4 °F - 41.9 °F 60% 29.88 in 10.0 mi West 10.4 mph - N/A   Mostly Cloudy
2:15 PM 55.6 °F - 41.5 °F 59% 29.88 in 10.0 mi West 11.5 mph 16.1 mph N/A   Scattered Clouds
2:35 PM 54.0 °F - 40.8 °F 61% 29.87 in 10.0 mi WSW 8.1 mph - N/A   Clear
2:55 PM 53.6 °F - 41.2 °F 63% 29.88 in 10.0 mi West 8.1 mph - N/A   Scattered Clouds
3:15 PM 54.3 °F - 41.5 °F 62% 29.87 in 10.0 mi West 9.2 mph - N/A   Mostly Cloudy
3:35 PM 55.4 °F - 39.7 °F 56% 29.87 in 10.0 mi West 9.2 mph - N/A   Scattered Clouds
3:55 PM 55.6 °F - 39.2 °F 54% 29.88 in 10.0 mi West 9.2 mph - N/A   Clear
4:15 PM 55.8 °F - 38.5 °F 52% 29.89 in 10.0 mi West 9.2 mph - N/A   Clear
4:35 PM 55.4 °F - 37.6 °F 51% 29.88 in 10.0 mi West 8.1 mph - N/A   Clear
4:55 PM 55.0 °F - 37.2 °F 51% 29.89 in 10.0 mi West 8.1 mph - N/A   Clear
5:15 PM 54.1 °F - 37.4 °F 53% 29.90 in 10.0 mi WNW 9.2 mph - N/A   Clear
5:35 PM 53.4 °F - 37.0 °F 54% 29.90 in 10.0 mi WNW 4.6 mph - N/A   Clear
5:55 PM 51.4 °F - 38.1 °F 60% 29.91 in 10.0 mi Calm Calm - N/A   Clear
6:15 PM 46.8 °F - 39.0 °F 74% 29.92 in 10.0 mi Calm Calm - N/A   Clear
6:35 PM 44.4 °F - 38.3 °F 79% 29.93 in 10.0 mi Calm Calm - N/A   Clear
6:55 PM 44.4 °F 42.9 °F 39.6 °F 83% 29.95 in 10.0 mi North 3.5 mph - N/A   Scattered Clouds
7:15 PM 47.3 °F - 38.3 °F 71% 29.97 in 10.0 mi Calm Calm - N/A   Scattered Clouds
7:35 PM 45.5 °F 44.2 °F 38.5 °F 76% 29.98 in 10.0 mi North 3.5 mph - N/A   Mostly Cloudy
7:55 PM 48.6 °F - 33.1 °F 55% 30.00 in 10.0 mi North 9.2 mph 16.1 mph N/A   Overcast
8:15 PM 47.7 °F - 30.9 °F 52% 30.02 in 10.0 mi North 10.4 mph 16.1 mph N/A   Overcast
8:35 PM 44.6 °F 37.8 °F 30.2 °F 57% 30.04 in 10.0 mi North 15.0 mph 23.0 mph N/A   Scattered Clouds
8:55 PM 42.4 °F 37.0 °F 28.4 °F 58% 30.06 in 10.0 mi North 9.2 mph 18.4 mph N/A   Scattered Clouds
9:15 PM 41.2 °F 36.6 °F 27.9 °F 59% 30.08 in 10.0 mi North 6.9 mph - N/A   Scattered Clouds
9:35 PM 40.1 °F 34.7 °F 26.8 °F 59% 30.10 in 10.0 mi North 8.1 mph - N/A   Clear
9:55 PM 39.6 °F 37.4 °F 26.6 °F 60% 30.11 in 10.0 mi North 3.5 mph 20.7 mph N/A   Clear
10:15 PM 38.8 °F 31.6 °F 25.9 °F 60% 30.11 in 10.0 mi North 11.5 mph 16.1 mph N/A   Clear
10:35 PM 38.3 °F 32.5 °F 25.3 °F 60% 30.12 in 10.0 mi North 8.1 mph - N/A   Clear
10:55 PM 37.4 °F 32.8 °F 25.3 °F 62% 30.12 in 10.0 mi North 5.8 mph - N/A   Clear
11:15 PM 36.9 °F 31.4 °F 25.7 °F 64% 30.12 in 10.0 mi North 6.9 mph - N/A   Clear
11:35 PM 36.3 °F 32.5 °F 25.7 °F 65% 30.12 in 10.0 mi NNW 4.6 mph - N/A   Clear
11:55 PM 36.1 °F 29.9 °F 24.8 °F 63% 30.13 in 10.0 mi North 8.1 mph - N/A   Clear